Weather History for Jacksonville, IL

Change the Weather History Date:

Monday, December 26, 2011

  Actual Average (KSPI) Record (KSPI)
Temperature  
Mean Temperature 34 °F 28 °F  
Max Temperature 42 °F 36 °F 67 °F (1942)
Min Temperature 25 °F 20 °F -10 °F (1983)
Degree Days  
Heating Degree Days 32 37  
Month to date heating degree days 886  
Since 1 July heating degree days 1954  
Cooling Degree Days 0 0  
Month to date cooling degree days 0  
Year to date cooling degree days 1122  
Moisture  
Dew Point 29 °F    
Average Humidity 76    
Maximum Humidity 92    
Minimum Humidity 61    
Precipitation  
Precipitation 0.00 in 0.07 in 0.56 in (1942)
Month to date precipitation 2.17  
Year to date precipitation 37.08  
Snow  
Snow 0.00 in 0.20 in 4.50 in (1939)
Month to date snowfall 4.5  
Since 1 July snowfall 5.1  
Snow Depth -    
Sea Level Pressure  
Sea Level Pressure 30.24 in    
Wind  
Wind Speed 5 mph (South)    
Max Wind Speed 16 mph    
Max Gust Speed 22 mph    
Visibility 10 miles    
Events Rain    
T = Trace of Precipitation, MM = Missing Value Source: NWS Daily Summary

Daily Weather History Graph

Daily Weather History Graph

Search for Another Location

Airport:

Trip Planner

Search our weather history database for the weather conditions in past years. The results will help you decide how hot, cold, wet, or windy it might be!

Date:

Astronomy

Dec. 26, 2011 Rise Set
Actual Time 7:20 AM CST 4:42 PM CST
Civil Twilight 6:50 AM CST 5:12 PM CST
Nautical Twilight 6:16 AM CST 5:46 PM CST
Astronomical Twilight 5:43 AM CST 6:19 PM CST
Moon 8:40 AM CST (12/26) 7:10 PM CST (12/26)
Length of Visible Light 10h 22m
Length of Day
9h 21m
Waxing Crescent, 5% of the Moon is Illuminated
Dec 26
Waxing Crescent
Jan 1
First Quarter
Jan 9
Full
Jan 16
Last Quarter
Jan 23
New

Hourly Weather History & Observations

Time (CST) Temp. Windchill Dew Point Humidity Pressure Visibility Wind Dir Wind Speed Gust Speed Precip Events Conditions
12:15 AM 32.7 °F - 28.2 °F 83% 30.37 in 10.0 mi Calm Calm - N/A   Clear
12:35 AM 32.0 °F - 28.6 °F 87% 30.36 in 10.0 mi Calm Calm - N/A   Clear
12:55 AM 31.5 °F 28.1 °F 28.0 °F 87% 30.35 in 10.0 mi SW 3.5 mph - N/A   Clear
1:15 AM 31.6 °F - 28.0 °F 87% 30.35 in 10.0 mi Calm Calm - N/A   Clear
1:35 AM 30.0 °F - 26.4 °F 86% 30.35 in 10.0 mi Calm Calm - N/A   Clear
1:55 AM 27.7 °F 22.4 °F 24.8 °F 89% 30.34 in 10.0 mi East 4.6 mph - N/A   Clear
2:15 AM 28.4 °F - 24.8 °F 86% 30.34 in 10.0 mi Calm Calm - N/A   Clear
2:35 AM 28.9 °F - 26.4 °F 90% 30.34 in 10.0 mi Calm Calm - N/A   Clear
2:55 AM 29.5 °F - 27.0 °F 90% 30.34 in 10.0 mi Calm Calm - N/A   Clear
3:15 AM 29.3 °F - 27.0 °F 91% 30.34 in 10.0 mi Calm Calm - N/A   Clear
3:35 AM 28.4 °F - 26.2 °F 92% 30.33 in 10.0 mi Calm Calm - N/A   Clear
3:55 AM 28.2 °F - 25.9 °F 91% 30.33 in 10.0 mi Calm Calm - N/A   Clear
4:15 AM 25.5 °F 21.3 °F 23.2 °F 91% 30.32 in 10.0 mi SE 3.5 mph - N/A   Clear
4:35 AM 28.6 °F - 26.4 °F 92% 30.32 in 10.0 mi Calm Calm - N/A   Clear
4:55 AM 27.9 °F 24.0 °F 25.5 °F 91% 30.31 in 10.0 mi SE 3.5 mph - N/A   Clear
5:15 AM 27.5 °F 22.2 °F 25.5 °F 92% 30.30 in 10.0 mi SE 4.6 mph - N/A   Clear
5:35 AM 28.4 °F 22.2 °F 25.2 °F 88% 30.30 in 10.0 mi SSE 5.8 mph - N/A   Clear
5:55 AM 30.2 °F 24.3 °F 26.6 °F 86% 30.30 in 10.0 mi SSE 5.8 mph - N/A   Clear
6:15 AM 30.7 °F 24.9 °F 26.4 °F 84% 30.30 in 10.0 mi SSE 5.8 mph - N/A   Clear
6:35 AM 30.9 °F 25.2 °F 26.4 °F 83% 30.30 in 10.0 mi SSE 5.8 mph - N/A   Clear
6:55 AM 32.0 °F 25.6 °F 27.1 °F 82% 30.30 in 10.0 mi SSE 6.9 mph - N/A   Clear
7:15 AM 32.5 °F 25.5 °F 27.5 °F 82% 30.29 in 10.0 mi SSE 8.1 mph - N/A   Clear
7:35 AM 32.4 °F 26.0 °F 27.3 °F 82% 30.27 in 10.0 mi SE 6.9 mph - N/A   Clear
7:55 AM 33.3 °F 25.7 °F 28.2 °F 82% 30.27 in 10.0 mi SSE 9.2 mph - N/A   Clear
8:15 AM 35.6 °F 29.2 °F 28.9 °F 77% 30.28 in 10.0 mi South 8.1 mph - N/A   Clear
8:35 AM 36.1 °F 27.7 °F 29.1 °F 76% 30.28 in 10.0 mi South 12.7 mph - N/A   Clear
8:55 AM 36.7 °F 29.4 °F 30.0 °F 77% 30.28 in 10.0 mi South 10.4 mph - N/A   Clear
9:15 AM 37.8 °F 30.7 °F 30.7 °F 76% 30.29 in 10.0 mi South 10.4 mph - N/A   Clear
9:35 AM 39.4 °F 31.1 °F 30.4 °F 70% 30.28 in 10.0 mi South 15.0 mph 19.6 mph N/A   Clear
9:55 AM 40.3 °F 33.4 °F 31.1 °F 70% 30.28 in 10.0 mi South 11.5 mph 20.7 mph N/A   Clear
10:15 AM 41.4 °F 36.2 °F 31.3 °F 67% 30.28 in 10.0 mi South 8.1 mph - N/A   Clear
10:35 AM 42.8 °F 35.1 °F 31.3 °F 64% 30.27 in 10.0 mi South 16.1 mph - N/A   Clear
10:55 AM 42.8 °F 36.2 °F 30.6 °F 62% 30.25 in 10.0 mi South 12.7 mph 21.9 mph N/A   Clear
11:15 AM 42.4 °F 35.7 °F 30.2 °F 62% 30.25 in 10.0 mi South 12.7 mph 21.9 mph N/A   Clear
11:35 AM 42.3 °F 35.9 °F 30.2 °F 62% 30.24 in 10.0 mi South 11.5 mph - N/A   Clear
11:55 AM 42.3 °F 35.5 °F 30.6 °F 63% 30.23 in 10.0 mi South 12.7 mph - N/A   Clear
12:15 PM 42.6 °F 35.9 °F 30.6 °F 62% 30.21 in 10.0 mi South 12.7 mph 18.4 mph N/A   Clear
12:35 PM 42.3 °F 35.5 °F 30.2 °F 62% 30.20 in 10.0 mi South 12.7 mph 16.1 mph N/A   Clear
12:55 PM 41.9 °F 36.9 °F 29.5 °F 61% 30.17 in 10.0 mi South 8.1 mph - N/A   Clear
1:15 PM 41.9 °F 36.3 °F 29.7 °F 62% 30.14 in 10.0 mi South 9.2 mph - N/A   Clear
1:35 PM 41.7 °F 35.2 °F 29.8 °F 63% 30.13 in 10.0 mi South 11.5 mph 16.1 mph N/A   Clear
1:55 PM 41.4 °F 35.7 °F 29.5 °F 63% 30.13 in 10.0 mi South 9.2 mph - N/A   Clear
2:15 PM 41.0 °F 33.5 °F 29.5 °F 64% 30.12 in 10.0 mi South 13.8 mph - N/A   Clear
2:35 PM 40.8 °F 34.1 °F 30.2 °F 66% 30.12 in 10.0 mi South 11.5 mph - N/A   Scattered Clouds
2:55 PM 41.0 °F 34.7 °F 30.0 °F 65% 30.08 in 10.0 mi SSE 10.4 mph - N/A   Scattered Clouds
3:15 PM 41.0 °F 34.7 °F 30.2 °F 65% 30.08 in 10.0 mi SSE 10.4 mph - N/A   Scattered Clouds
3:35 PM 41.0 °F 34.7 °F 30.4 °F 66% 30.06 in 10.0 mi SSE 10.4 mph - N/A   Scattered Clouds
3:55 PM 41.0 °F 33.9 °F 30.2 °F 65% 30.06 in 10.0 mi SSE 12.7 mph - N/A   Scattered Clouds
4:15 PM 41.0 °F 34.7 °F 30.0 °F 65% 30.06 in 10.0 mi South 10.4 mph - N/A   Mostly Cloudy
4:35 PM 39.7 °F 32.7 °F 31.6 °F 73% 30.07 in 10.0 mi South 11.5 mph - N/A Rain Light Rain
4:55 PM 39.7 °F 33.7 °F 32.0 °F 74% 30.08 in 10.0 mi South 9.2 mph 16.1 mph N/A Rain Light Rain
5:15 PM 39.4 °F 35.2 °F 32.0 °F 75% 30.09 in 10.0 mi SW 5.8 mph - N/A Rain Light Rain
5:35 PM 38.8 °F 34.6 °F 32.0 °F 76% 30.08 in 10.0 mi SW 5.8 mph - N/A Rain Light Rain
5:55 PM 38.5 °F 36.1 °F 32.5 °F 79% 30.07 in 10.0 mi SSW 3.5 mph - N/A   Light Drizzle
6:15 PM 38.3 °F 35.9 °F 33.1 °F 81% 30.07 in 10.0 mi SSW 3.5 mph - N/A   Overcast
6:35 PM 38.3 °F 35.9 °F 33.3 °F 82% 30.07 in 10.0 mi SW 3.5 mph - N/A Rain Light Rain
6:55 PM 37.9 °F - 33.4 °F 84% 30.06 in 10.0 mi Calm Calm - 0.01 in   Light Drizzle
7:15 PM 37.9 °F 35.5 °F 33.8 °F 85% 30.05 in 10.0 mi SSE 3.5 mph - N/A   Overcast
7:35 PM 37.8 °F 33.3 °F 34.0 °F 86% 30.05 in 10.0 mi SSE 5.8 mph - N/A   Overcast
7:55 PM 37.9 °F 33.5 °F 34.0 °F 86% 30.04 in 10.0 mi SSE 5.8 mph - N/A   Overcast
8:15 PM 37.6 °F 34.0 °F 33.8 °F 86% 30.03 in 4.0 mi South 4.6 mph - N/A Rain Rain
8:35 PM 37.4 °F 33.8 °F 34.3 °F 89% 30.01 in 7.0 mi SSW 4.6 mph - 0.01 in Rain Light Rain
8:55 PM 37.4 °F 33.8 °F 34.3 °F 89% 30.00 in 10.0 mi South 4.6 mph - 0.02 in Rain Rain
9:15 PM 36.9 °F 33.1 °F 34.2 °F 90% 29.99 in 5.0 mi SSE 4.6 mph - N/A   Overcast
9:35 PM 36.7 °F 31.2 °F 34.7 °F 93% 29.98 in 5.0 mi SSE 6.9 mph - 0.01 in Rain Rain
9:55 PM 36.7 °F 30.5 °F 34.7 °F 93% 29.97 in 4.0 mi SSE 8.1 mph - 0.01 in Rain Rain
10:15 PM 36.5 °F 31.0 °F 34.7 °F 93% 29.96 in 3.0 mi South 6.9 mph - 0.01 in Rain Light Rain
10:35 PM 36.5 °F 31.8 °F 34.7 °F 93% 29.94 in 3.0 mi SSE 5.8 mph - 0.02 in Rain Light Rain
10:55 PM 37.4 °F 31.4 °F 35.6 °F 93% 29.89 in 3.0 mi SE 8.1 mph - N/A Rain Light Rain
11:15 PM 36.7 °F 32.9 °F 35.1 °F 94% 29.90 in 5.0 mi SSE 4.6 mph - N/A   Light Drizzle
11:35 PM 36.7 °F 32.9 °F 35.1 °F 94% 29.88 in 5.0 mi SE 4.6 mph - N/A Rain Light Rain
11:55 PM 36.7 °F 34.1 °F 35.2 °F 95% 29.88 in 5.0 mi SSE 3.5 mph - N/A   Overcast